Overview Statistics Trail Chart Weather Telemetry Raw packets
 

This is the latest recevied weather packets stored in our database for station/object KK4MOR. If no packets are shown the sender has not sent any weather packets the latest 10 day(s).

<< 31 32 33 34 35 36 37 >>
Time Temp. Humidity Pressure Rain* Wind** Luminosity Snow
1787882468 21.67° C 91% 1012.3 hPa 0 mm - - -
1787881548 22.22° C 90% 1012.1 hPa 0 mm - - -
1787880648 22.22° C 89% 1011.8 hPa 0 mm - - -
1787879748 22.78° C 88% 1011.7 hPa 0 mm - - -
1787878852 22.78° C 86% 1011.5 hPa 0 mm - - -
1787877949 23.33° C 85% 1011.5 hPa 0 mm - - -
1787877052 23.89° C 84% 1011.3 hPa 0 mm - - -
1787876151 24.44° C 82% 1011.2 hPa 0 mm - - -
1787875245 25° C 81% 1011.1 hPa 0 mm - - -
1787874360 25.56° C 79% 1011.1 hPa 0 mm - - -
1787873444 26.67° C 75% 1011.2 hPa 0 mm - - -
1787872542 27.78° C 71% 1011.2 hPa 0 mm - - -
1787871643 29.44° C 65% 1011.1 hPa 0 mm - - -
1787870743 30° C 60% 1011.2 hPa 0 mm - - -
1787869840 30° C 64% 1011.2 hPa 0 mm - - -
1787868947 29.44° C 62% 1011.3 hPa 0 mm - - -
1787868039 30° C 61% 1011.3 hPa 0 mm - - -
1787867154 31.11° C 57% 1011.4 hPa 0 mm - - -
1787866236 31.11° C 60% 1011.3 hPa 0 mm - - -
1787865334 31.11° C 61% 1011.4 hPa 0 mm - - -
1787864435 30.56° C 60% 1011.3 hPa 0 mm - - -
1787863530 30° C 59% 1011.5 hPa 0 mm - - -
1787862628 30.56° C 64% 1011.7 hPa 0 mm - - -
1787861741 30° C 62% 1011.9 hPa 0 mm - - -
1787860837 30.56° C 60% 1011.8 hPa 0 mm - - -

* Rain latest hour (hover to see other rain measurements)
** Current wind speed in m/s (hover to see current wind gust speed)